Lapse_Rate
3.3 3.5 4.5 4.7 4.9 4.7 4.4 5.0 5.4 5.3 5.5 4.4 4.1 4.1 4.2 4.5 4.7 4.0 4.1 4.7 4.5 4.3 4.4 4.7 4.6 4.9 4.7 4.7 4.9 5.3 6.5 6.9 8.1 8.8 7.0 7.1 7.3 7.3 7.6 7.0 7.3 7.1 7.8
3.8 3.7 3.8 4.2 4.5 4.7 4.7 4.3 4.0 4.1 4.0 3.9 3.6 3.3 3.8 3.7 4.6 4.0 4.5 4.3 4.4 4.1 4.8 4.8 4.7 5.4 4.8 5.1 5.6 6.2 7.4 7.2 8.7 8.5 8.7 9.1 7.8 7.5 7.6 7.7 8.3 8.6 8.1
4.4 4.0 3.5 3.7 4.1 4.4 4.3 4.4 4.3 3.3 2.9 3.4 3.2 4.5 4.8 4.7 4.5 4.0 4.7 5.6 5.9 6.4 6.8 7.3 7.1 7.5 7.5 7.6 7.4 7.9 8.0 7.7 8.4 9.0 8.8 8.8 8.7 8.8 8.7 9.1 8.3 8.2 8.8
5.4 5.4 5.0 4.5 4.1 3.9 4.1 3.7 2.9 3.0 3.1 3.8 3.4 4.1 4.0 4.1 4.5 4.6 5.8 6.5 6.5 6.4 6.5 6.6 7.2 7.5 7.7 7.8 8.1 8.0 8.2 8.9 8.8 9.1 9.1 9.2 9.3 9.4 9.1 9.4 9.4 9.9 9.8
5.5 5.5 5.5 4.6 5.5 4.3 4.3 5.0 5.1 4.4 4.6 5.9 5.5 4.6 5.2 5.3 6.3 6.5 6.4 6.3 6.4 6.4 6.3 7.1 6.5 6.4 5.8 6.2 8.9 8.2 8.3 9.2 9.2 9.1 9.0 9.0 9.1 9.1 9.2 9.5 9.3 9.6 9.7
4.8 5.4 6.0 6.1 6.6 5.7 4.4 3.9 4.2 4.0 5.6 5.5 5.4 5.7 5.8 6.1 1.5 2.2 5.6 6.3 6.3 6.7 7.4 8.0 8.1 7.3 7.1 5.3 5.6 5.2 5.8 7.5 8.9 9.2 9.3 9.0 8.9 9.2 9.4 9.4 9.3 9.2 9.0
6.1 7.2 6.1 6.3 5.2 4.9 4.7 3.1 2.9 4.1 5.2 5.1 5.7 5.9 5.4 4.8 1.0 1.6 3.8 6.4 6.9 7.2 7.4 7.9 9.2 8.4 7.9 8.4 6.9 7.0 6.3 5.5 5.7 7.9 8.9 9.1 8.9 9.2 9.1 9.0 9.0 9.1 9.1
6.1 5.3 5.5 6.0 6.4 6.0 5.0 4.8 5.4 5.5 5.2 5.5 5.9 6.1 6.0 4.8 1.3 2.1 4.2 7.4 7.5 7.2 7.5 7.9 8.2 8.2 6.4 7.7 9.0 9.3 9.4 9.5 8.2 8.6 8.2 8.3 8.7 8.5 8.5 9.2 8.8 9.0 8.9
5.0 5.2 6.2 6.6 6.4 6.0 6.0 5.5 5.4 5.6 5.7 6.1 6.5 6.6 6.1 5.8 1.7 2.4 7.6 8.9 8.2 8.0 8.3 7.7 8.8 8.5 3.2 4.2 9.0 8.9 9.3 9.1 8.2 6.5 5.3 5.0 4.6 4.3 4.8 8.8 9.3 8.8 9.0
5.4 5.7 5.8 5.8 6.6 6.2 5.9 5.9 5.8 6.2 6.2 7.2 6.6 6.5 4.6 6.9 1.2 1.8 6.2 9.9 8.4 9.5 9.1 8.5 3.8 5.4 2.8 3.6 8.9 9.3 9.1 8.9 8.8 8.1 9.1 9.3 8.6 9.1 6.7 7.7 9.5 8.7 8.9
5.0 5.4 5.5 5.8 5.9 6.0 5.9 6.2 5.9 6.1 6.2 6.1 6.1 6.4 6.5 5.5 5.4 1.5 2.2 9.0 9.6 9.6 9.6 9.7 9.5 3.1 3.0 3.4 3.6 8.8 7.3 6.4 8.7 9.6 9.7 9.7 9.6 9.5 9.4 8.7 8.2 7.8 8.2
5.0 4.8 6.4 6.8 7.0 6.2 5.9 6.0 6.1 6.2 6.3 6.5 6.4 7.2 7.4 7.0 2.1 3.1 1.7 2.2 4.5 9.0 9.1 9.5 8.5 2.8 3.0 3.3 6.2 3.3 3.4 5.6 9.3 9.3 9.5 9.0 8.0 7.9 7.4 6.6 7.0 8.0 7.2
5.0 5.1 5.7 6.3 6.4 6.8 6.8 6.4 6.5 7.1 7.8 7.8 8.6 8.6 8.3 8.3 8.2 3.5 2.6 2.1 2.5 7.1 8.8 5.7 3.5 3.6 5.3 8.0 4.4 3.9 5.8 9.5 8.1 8.5 9.0 7.6 7.3 7.1 6.8 6.6 6.4 6.6 6.6
5.8 5.8 6.3 6.8 6.2 6.9 7.6 7.5 8.0 8.1 8.5 8.6 9.0 9.0 8.7 8.6 9.0 9.3 9.4 8.9 3.4 5.5 5.4 8.0 5.6 4.8 3.9 5.8 9.0 9.6 9.9 9.2 7.6 7.1 7.8 7.5 7.7 6.8 5.9 5.7 5.4 5.6 5.6
5.5 6.1 5.6 5.9 6.2 6.0 6.4 7.1 8.0 7.7 7.3 9.1 8.9 8.9 9.1 9.2 8.8 4.1 3.9 8.1 8.8 5.9 5.9 8.5 9.6 9.6 9.7 9.7 9.7 9.8 9.9 7.3 6.6 6.7 6.9 7.2 7.7 5.8 5.8 5.7 6.1 6.8 5.8
7.4 6.4 5.0 5.1 5.3 7.7 7.5 6.6 -0.4 0.7 0.9 0.7 1.6 4.0 8.1 4.3 2.5 1.6 1.5 1.3 1.6 2.1 7.1 8.3 9.4 9.4 9.4 9.5 9.5 9.6 9.7 7.0 5.9 5.8 6.1 6.3 5.9 6.0 5.8 6.0 6.1 6.1 5.7
5.8 5.1 4.8 5.3 5.5 7.8 7.7 8.4 8.2 4.3 0.4 0.4 1.1 0.9 1.0 0.2 1.2 1.7 2.3 1.8 2.3 5.0 8.5 9.4 9.4 9.4 9.5 9.6 9.6 9.6 9.5 7.5 5.3 5.4 5.3 5.5 6.0 6.2 8.1 6.8 5.9 5.7 5.5
5.9 4.0 5.8 5.6 6.2 7.2 6.2 4.9 6.4 8.2 9.0 9.1 2.1 2.5 1.0 1.1 0.9 0.9 3.4 5.7 7.7 7.5 9.5 9.5 9.4 9.5 9.5 9.5 9.7 9.7 9.7 7.5 5.2 5.2 4.8 5.0 6.1 5.6 6.5 8.3 7.0 6.2 5.5
8.0 7.8 8.1 8.1 7.9 6.4 5.2 6.5 8.4 8.5 8.8 9.1 9.4 7.4 5.9 3.8 3.9 4.0 6.2 8.1 7.7 8.4 9.5 9.5 9.7 9.6 9.7 9.8 9.8 9.9 9.6 7.9 6.3 6.3 4.3 4.8 6.3 6.3 5.8 7.9 8.2 5.3 4.6
7.0 3.1 5.6 5.5 6.0 7.1 8.1 8.5 9.2 8.7 9.0 8.7 8.4 8.0 9.0 9.2 9.4 9.4 9.4 9.5 9.6 9.6 9.8 9.7 9.8 9.8 9.9 9.9 9.8 9.8 9.7 9.4 6.6 6.2 4.7 4.0 5.9 6.2 6.0 7.5 8.8 7.8 5.8
6.3 6.5 4.0 8.5 9.1 9.4 9.3 9.2 9.3 8.9 8.5 8.0 7.8 5.6 -0.7 9.7 9.5 9.6 9.5 9.7 9.7 9.7 9.7 9.6 9.6 10.1 10.1 9.5 8.8 8.7 8.5 8.5 6.9 6.0 4.8 4.6 4.5 3.7 5.5 7.1 9.3 8.6 6.6
8.3 8.4 9.0 9.0 8.7 9.0 8.8 8.9 8.9 9.2 9.3 9.3 9.4 7.4 3.4 9.7 9.7 9.8 9.6 9.7 9.5 9.5 9.2 8.9 10.0 10.0 8.7 7.8 7.3 7.2 7.4 6.8 4.9 5.1 5.6 5.7 4.9 5.8 4.8 6.5 8.1 8.3 8.5
8.8 8.6 8.8 8.9 8.4 5.7 8.7 9.2 9.1 9.0 9.0 8.6 9.4 9.5 9.6 9.6 9.7 9.7 9.7 9.7 9.5 9.3 9.4 9.4 9.4 9.1 7.5 6.7 6.0 5.5 6.2 5.9 3.9 2.0 3.8 3.9 3.5 6.0 6.1 5.1 6.5 7.5 8.1
9.0 9.0 9.4 8.9 8.9 9.4 9.2 9.0 8.0 5.9 8.5 8.4 7.9 8.6 9.2 9.6 9.7 9.7 9.9 9.9 9.8 9.5 8.6 7.9 7.3 6.9 6.7 6.4 6.2 4.8 3.4 1.6 1.7 4.0 4.8 5.1 5.0 5.9 8.9 8.7 7.6 7.4 7.6
9.7 9.0 9.1 8.7 8.9 9.3 8.4 9.1 9.0 8.7 8.6 8.0 7.7 7.8 8.2 9.2 9.7 9.4 9.2 9.4 9.1 8.9 7.6 7.0 6.7 6.3 6.3 5.6 5.3 3.8 0.8 -1.3 -1.5 -0.8 1.8 4.7 6.6 7.6 7.9 8.3 8.2 8.9 8.0
8.8 8.8 8.7 8.7 8.7 8.9 9.3 9.2 9.1 8.6 8.5 8.1 8.1 8.2 8.0 8.5 8.0 7.9 8.0 7.7 7.7 7.5 6.8 6.7 6.2 5.6 5.3 5.6 4.0 0.4 -0.2 -1.4 -0.8 -0.6 0.0 5.8 8.0 8.1 8.5 8.5 9.2 8.8 7.6
Wind_Speed
10 9 9 6 4 3 4 4 5 8 9 10 9 8 10 10 9 9 9 10 10 7 6 6 6 4 2 3 2 2 2 0 3 3 2 1 2 3 4 7 7 8 9
9 9 7 6 6 6 7 8 9 9 10 10 9 11 11 10 8 10 9 8 7 8 6 7 5 3 3 3 3 4 2 1 4 6 2 3 2 2 3 5 5 7 9
10 10 10 10 9 8 9 10 9 10 10 10 11 11 11 10 10 11 10 10 10 10 9 7 6 5 4 4 4 3 2 1 3 4 5 2 3 4 6 5 5 7 8
9 10 10 10 10 10 10 10 9 9 10 11 11 11 10 10 12 10 9 10 10 9 9 9 9 9 7 5 4 3 3 3 3 3 4 5 5 5 6 6 7 7 8
9 9 11 11 12 10 10 11 12 12 9 13 14 13 13 11 8 10 10 10 11 10 11 10 12 14 17 14 7 8 7 6 5 6 5 5 6 7 9 7 8 8 9
9 8 9 12 12 10 10 10 12 11 12 14 14 14 13 10 12 14 11 11 11 11 10 9 10 12 12 14 12 12 9 7 7 6 6 7 9 9 8 8 9 9 9
9 8 8 10 11 11 10 9 10 11 13 13 13 13 13 11 11 12 12 11 11 11 11 9 7 7 10 9 8 8 9 8 8 6 8 8 9 9 10 11 11 10 11
9 7 5 9 11 10 11 11 11 11 11 11 11 11 11 9 10 10 10 12 11 12 11 11 10 10 10 9 8 8 8 8 9 8 9 10 10 10 10 11 11 11 10
6 5 7 9 10 10 10 10 9 10 9 9 9 10 11 9 8 7 8 9 10 10 10 11 10 10 8 8 9 10 11 11 13 8 9 13 15 14 11 7 9 10 10
6 8 7 7 8 9 10 9 9 8 8 7 9 9 8 9 9 8 7 7 9 7 7 8 11 9 7 10 9 10 11 13 13 12 10 9 8 9 10 10 9 9 10
7 7 7 7 8 8 8 8 8 8 8 8 8 8 8 7 9 10 10 4 4 5 5 6 7 8 7 6 6 8 10 11 10 9 9 8 9 10 9 12 10 8 9
5 5 7 6 5 6 8 7 7 7 7 6 7 5 4 4 6 6 6 6 3 2 3 4 4 4 5 5 7 8 11 11 8 8 8 9 8 8 8 8 15 16 13
5 5 5 5 5 5 7 7 5 5 5 4 4 3 2 2 2 1 5 3 2 3 2 3 2 4 3 2 4 7 9 7 7 7 8 8 8 9 10 10 14 16 15
6 6 5 6 6 4 4 4 4 4 3 4 3 2 2 1 3 3 4 1 2 5 5 2 2 4 3 3 6 7 7 7 8 7 8 9 8 8 8 7 8 8 7
5 3 5 4 4 5 4 3 3 2 1 2 2 1 0 1 4 6 6 5 4 4 4 2 3 5 6 7 8 8 7 8 8 8 8 9 9 8 7 8 7 8 5
5 4 3 4 4 5 5 5 6 6 2 3 5 4 0 2 6 7 3 4 5 1 2 2 4 5 7 8 8 8 7 8 8 8 7 8 8 9 8 8 8 8 7
6 5 3 3 2 5 4 4 4 4 7 8 6 7 7 9 7 6 4 8 4 1 2 3 4 5 6 7 8 7 7 7 8 7 7 7 9 9 10 7 8 7 7
7 6 4 3 4 3 3 2 2 2 2 3 9 8 8 7 9 8 4 5 4 3 3 4 4 5 6 7 7 8 7 6 7 7 7 8 8 8 9 10 8 8 7
6 5 4 4 3 4 3 3 3 4 4 4 3 4 5 7 8 9 6 4 3 3 4 4 4 5 6 7 7 7 8 7 7 7 7 8 8 8 8 8 8 8 7
6 6 6 4 4 4 4 4 4 4 4 4 5 5 5 3 5 5 5 5 4 4 5 5 5 5 6 7 7 7 7 7 7 7 7 7 8 8 8 9 9 9 7
4 4 6 4 4 4 4 4 4 4 5 5 5 5 5 4 4 4 4 4 4 4 5 6 6 6 6 7 7 7 8 8 7 8 7 7 8 7 8 8 9 8 6
4 5 5 5 5 4 5 5 4 4 4 4 4 4 4 4 5 5 6 6 6 5 6 4 5 6 6 7 7 8 8 8 8 8 8 8 8 8 6 7 8 7 8
5 6 6 5 5 5 4 4 4 4 4 4 4 4 4 4 4 4 4 4 4 4 5 6 7 6 8 9 9 10 8 8 8 9 9 9 8 8 7 4 5 5 6
6 6 6 5 4 4 4 4 4 4 4 4 3 3 3 4 4 4 4 4 5 5 6 7 7 8 9 9 9 10 10 14 13 13 13 8 8 9 8 6 3 3 4
5 6 5 5 4 3 4 3 3 3 3 3 4 3 3 3 4 4 4 4 4 5 6 6 7 9 9 9 10 13 16 18 13 16 12 12 10 11 8 6 5 5 4
5 5 4 4 4 3 3 3 2 2 2 2 2 2 2 2 3 3 3 4 4 5 6 6 7 9 9 8 12 17 19 18 16 18 11 10 7 8 8 9 8 4 4
Wind_Direction
57 59 64 64 42 22 26 32 18 20 31 51 55 54 59 56 66 73 70 71 71 76 65 59 66 68 53 75 73 116 125 219 260 230 252 264 279 350 348 347 334 329 316
55 59 61 69 63 60 53 57 77 76 74 73 66 66 59 65 54 69 62 67 68 73 62 65 50 40 43 45 49 46 343 242 288 273 279 252 281 340 315 295 315 307 314
66 70 69 67 69 74 79 76 72 76 64 60 63 62 71 66 67 66 69 71 68 63 62 62 50 43 44 41 23 5 3 329 254 280 309 317 311 323 320 302 312 313 295
67 73 78 72 75 76 73 69 65 68 74 76 72 69 65 65 64 65 67 68 67 62 60 54 45 40 29 28 53 46 42 356 12 326 317 322 307 330 305 299 306 311 314
75 74 82 80 84 74 74 79 84 77 80 85 82 71 66 63 57 70 67 61 60 58 56 57 55 58 53 43 28 28 7 356 345 339 330 306 311 314 322 321 294 305 302
83 84 93 97 94 89 88 85 82 76 78 73 70 73 68 63 45 47 62 66 58 52 50 53 59 47 56 54 54 55 42 14 7 345 330 328 318 314 305 314 309 309 305
91 90 87 95 91 87 85 78 73 74 78 76 74 72 70 67 49 54 58 66 60 52 43 34 34 40 24 30 52 48 60 56 37 347 335 327 312 321 316 301 298 297 293
79 61 50 86 94 95 85 82 83 86 85 87 82 75 76 68 57 63 70 67 61 54 49 46 48 42 29 12 20 22 17 14 4 341 328 318 312 313 303 294 294 294 291
81 69 72 92 97 102 99 94 90 96 93 90 83 82 80 68 39 28 65 66 66 62 60 48 45 48 21 358 30 17 5 0 347 341 302 302 301 294 285 294 288 298 293
54 83 87 88 99 100 108 108 107 102 97 94 90 88 75 78 43 34 17 56 56 54 56 52 55 30 23 18 14 7 358 349 336 334 334 322 297 296 259 267 290 285 292
62 74 78 82 89 100 105 113 116 110 104 95 91 78 70 50 53 33 15 37 46 52 48 50 46 12 9 5 331 9 351 322 331 329 336 337 330 330 327 328 312 294 288
64 44 58 65 78 104 114 117 120 117 104 100 99 94 78 53 40 45 359 4 338 348 26 45 60 1 26 14 335 344 314 307 349 343 348 348 335 330 323 307 302 296 280
122 117 88 84 90 107 122 125 124 126 126 120 109 102 92 33 349 309 316 342 265 268 316 27 340 303 298 295 17 306 313 354 347 334 342 337 326 315 307 304 300 295 284
117 126 126 123 119 124 127 139 158 158 148 151 152 122 87 12 345 337 341 341 185 225 197 204 358 306 254 308 331 351 354 355 337 334 332 331 325 322 317 313 312 312 304
112 138 126 134 137 127 111 112 153 119 330 176 182 177 264 327 30 349 330 332 341 34 325 338 349 0 354 356 352 352 351 359 345 345 335 340 342 333 331 331 326 324 319
153 131 150 161 144 130 129 123 57 43 36 334 357 350 204 275 320 310 287 48 46 358 43 4 14 358 3 356 353 350 354 358 346 336 336 340 337 336 335 338 341 347 348
138 145 160 153 147 124 124 142 145 104 80 75 82 48 19 339 307 266 81 73 55 285 92 35 15 5 2 357 351 349 348 351 335 338 335 337 337 342 342 0 347 350 351
138 152 146 139 140 144 109 108 122 167 155 119 68 57 45 31 25 38 113 154 62 27 22 17 11 360 355 351 344 342 342 350 346 342 340 336 343 338 335 357 359 356 352
121 131 143 119 86 93 114 121 116 95 86 77 103 131 70 65 59 50 38 72 61 34 10 4 358 353 351 344 340 340 338 349 339 338 340 339 340 341 331 343 8 354 345
94 86 87 113 123 124 110 102 88 76 71 65 56 34 18 16 29 33 40 31 22 17 5 357 355 352 345 345 341 339 344 344 353 341 343 339 338 339 338 341 6 12 359
103 111 128 129 108 103 94 81 67 67 70 62 61 50 341 360 15 18 15 17 9 5 4 6 345 347 347 346 345 345 341 343 355 343 339 335 332 328 335 332 7 20 24
128 124 108 102 105 98 83 70 62 64 56 47 50 69 309 48 43 39 33 27 19 12 20 353 338 358 355 350 349 343 343 349 342 343 335 336 331 331 329 336 359 12 25
125 123 118 108 97 116 91 76 71 65 59 57 61 58 44 46 53 56 45 44 39 29 21 8 0 1 2 353 352 350 342 341 333 323 319 327 326 331 327 322 341 18 25
143 126 124 122 120 105 100 94 91 63 58 76 74 51 43 39 39 42 32 33 28 29 20 10 6 1 353 352 352 351 341 334 323 315 319 314 320 322 330 354 34 12 25
159 142 141 144 153 130 132 118 97 94 85 74 73 65 59 49 45 36 28 20 15 5 8 0 1 353 353 349 351 347 335 334 320 318 311 319 326 339 343 344 350 17 51
178 164 162 161 164 169 166 157 138 139 123 106 82 61 39 33 36 22 15 15 5 358 352 358 355 350 350 350 352 342 343 345 341 342 326 331 343 351 9 2 9 10 351